Hourly Data Report for October 04, 2016

All times are specified in Local Standard Time (LST). Add 1 hour to adjust for Daylight Saving Time where and when it is observed.

GJOA HAVEN A
NUNAVUT

68°38'08.000" N
95°51'01.000" W
46.90 m
2302337
71597
YHK

Download Data

Hourly Data (October 2016)
Hourly Data Report for October 4, 2016
Temp Definition
°C
Dew Point Temp Definition
°C
Rel Hum Definition
%
Wind Dir Definition
10's deg

Wind Spd Definition
km/h
Visibility Definition
km
Stn Press Definition
kPa
Hmdx Definition


Wind Chill Definition


Weather Definition


TIME
00:00 Legend Double Dagger -4.3 -5.7 90 35 32 16.1 99.82   -12 LegendNANA
01:00 Legend Double Dagger -5.4 -6.6 91 36 28 16.1 99.88   -13 LegendNANA
02:00 Legend Double Dagger -5.9 -7.1 91 34 24 16.1 99.96   -13 LegendNANA
03:00 Legend Double Dagger -5.5 -7.0 89 33 26 16.1 100.00   -13 LegendNANA
04:00 Legend Double Dagger -5.7 -6.9 91 33 24 16.1 100.05   -13 LegendNANA
05:00 Legend Double Dagger -5.2 -6.4 91 32 26 16.1 100.06   -13 Snow
06:00 Legend Double Dagger -4.6 -5.7 92 32 24 16.1 100.11   -12 Snow
07:00 Legend Double Dagger -4.7 -6.9 85 33 30 16.1 100.17   -13 Snow
08:00 Legend Double Dagger -4.8 -7.0 85 33 35 16.1 100.21   -13 LegendNANA
09:00 Legend Double Dagger -4.6 -7.1 83 34 35 16.1 100.29   -13 LegendNANA
10:00 Legend Double Dagger -4.8 -7.1 84 34 34 16.1 100.35   -13 LegendNANA
11:00 Legend Double Dagger -4.7 -6.5 87 34 34 16.1 100.41   -13 LegendNANA
12:00 Legend Double Dagger -4.6 -6.4 87 33 28 16.1 100.49   -12 LegendNANA
13:00 Legend Double Dagger -4.5 -7.3 81 33 34 16.1 100.56   -13 LegendNANA
14:00 Legend Double Dagger -4.7 -7.2 83 32 32 16.1 100.61   -13 LegendNANA
15:00 Legend Double Dagger -4.5 -6.6 85 32 30 16.1 100.68   -12 LegendNANA
16:00 Legend Double Dagger -4.6 -6.6 86 33 22 16.1 100.75   -11 LegendNANA
17:00 Legend Double Dagger -5.0 -7.1 85 32 28 16.1 100.81   -13 LegendNANA
18:00 Legend Double Dagger -5.0 -6.5 89 31 28 8.1 100.86   -13 Freezing Rain,Fog
19:00 Legend Double Dagger -5.3 -6.5 91 32 28 16.1 100.92   -13 LegendNANA
20:00 Legend Double Dagger -4.6 -5.7 92 31 18 16.1 100.99   -11 LegendNANA
21:00 Legend Double Dagger -4.2 -4.9 95 27 17 9.7 101.03   -10 Fog
22:00 Legend Double Dagger -3.4 -3.7 98 27 17 16.1 101.06   -9 LegendNANA
23:00 Legend Double Dagger -2.5 -3.5 93 33 22 16.1 101.13   -9 LegendNANA

Notes on Data Quality.

Legend

  • E = Estimated
  • M = Missing
  • NA = Not Available
  • ‡ = Partner data that is not subject to review by the National Climate Archives
Date modified: